Probability
0 0 0 0 0 0 0 0 0 0 0 0 0 0 0 0 0 0 0 0 0 0 0 0 0 0 0 0 0 0 0 0 0 0 0 0 0 0 0 0 0 0 0
3 0 0 0 0 0 0 0 0 0 0 0 0 0 0 0 0 0 0 0 0 0 0 0 0 0 0 0 0 0 0 0 0 0 0 0 0 0 0 0 0 0 0
0 0 0 0 0 0 0 0 0 0 0 0 0 0 0 0 0 0 0 0 0 0 0 0 0 0 0 0 0 0 0 0 0 0 0 0 0 0 0 0 0 0 0
3 0 0 0 0 0 0 0 0 0 0 0 0 0 0 0 0 0 0 0 0 0 0 0 0 0 0 0 0 0 0 0 0 0 0 0 0 0 0 0 0 0 0
3 0 0 0 0 0 0 0 0 0 0 0 0 0 0 0 0 0 0 0 0 0 0 0 0 0 0 0 0 0 0 0 0 0 0 0 0 0 0 0 0 0 0
0 0 0 0 0 0 0 0 0 0 0 0 0 0 0 0 0 0 0 0 0 0 0 0 0 0 0 0 0 0 0 0 0 0 0 0 0 0 0 0 0 0 0
0 0 0 0 0 0 0 0 0 0 0 0 0 0 0 0 0 0 0 0 0 0 0 0 0 0 0 0 0 0 0 0 0 0 0 0 0 0 0 0 0 0 0
0 0 0 0 0 0 0 0 0 0 0 0 0 0 0 0 0 0 0 0 0 0 0 0 0 0 0 0 0 0 0 0 0 0 0 0 0 0 0 0 0 0 0
0 0 0 0 0 0 0 0 0 0 0 0 0 0 0 0 0 0 0 0 0 0 0 0 0 0 0 0 0 0 0 0 0 0 0 0 0 0 0 0 0 0 0
0 0 0 0 0 0 0 0 0 0 0 0 0 0 0 0 0 0 0 0 0 0 0 0 0 0 0 0 0 0 0 0 0 0 0 0 0 0 0 0 0 0 0
0 0 0 0 0 0 0 0 0 0 0 0 0 0 0 0 0 0 0 0 0 0 0 0 0 0 0 0 0 0 0 0 0 0 0 0 0 0 0 0 0 0 0
0 0 0 0 0 0 0 0 0 0 0 0 0 0 0 0 0 0 0 0 0 0 0 0 0 0 0 0 0 0 0 0 0 0 0 0 0 0 0 0 0 0 0
0 0 0 0 0 0 0 0 0 0 0 0 0 0 0 0 0 0 0 0 0 0 0 0 0 0 0 0 0 0 0 0 0 0 0 0 0 0 0 0 0 0 0
0 0 0 0 0 0 0 0 0 0 0 0 0 0 0 0 0 0 0 0 0 0 0 0 0 0 0 0 0 0 0 0 0 0 0 0 0 0 0 0 0 0 0
0 0 0 0 0 0 0 0 0 0 0 0 0 0 0 0 0 0 0 0 0 0 0 0 0 0 0 0 0 0 0 0 0 0 0 0 0 0 0 0 0 0 0
0 0 0 0 0 0 0 0 0 0 0 0 0 0 0 0 0 0 0 0 0 0 0 0 0 0 0 0 0 0 0 0 0 0 0 0 0 0 0 0 0 0 0
0 0 0 0 0 0 0 0 0 0 0 0 0 0 0 0 0 0 0 0 0 0 0 0 0 0 0 0 0 0 0 0 0 0 0 0 0 0 0 0 0 0 0
0 0 0 0 0 0 0 0 0 0 0 0 0 0 0 0 0 0 0 0 0 0 0 0 0 0 0 0 0 0 0 0 0 0 0 0 0 0 0 0 0 0 0
0 0 0 0 0 0 0 0 0 0 0 0 0 0 0 0 0 0 0 0 0 0 0 0 0 0 0 0 0 0 0 0 0 0 0 0 0 0 0 0 0 0 0
0 0 0 0 0 0 0 0 0 0 0 0 0 0 0 0 0 0 0 0 0 0 0 0 0 0 0 0 0 0 0 0 0 0 0 0 0 0 0 0 0 0 0
0 0 0 0 0 0 0 0 0 0 0 0 0 0 0 0 0 0 0 0 0 0 0 0 0 0 0 0 0 0 0 0 0 0 0 0 0 0 0 0 0 0 0
0 0 0 0 0 0 0 0 0 0 0 0 0 0 0 0 0 0 0 0 0 0 0 0 0 0 0 0 0 0 0 0 0 0 0 0 0 0 0 0 0 0 0
0 0 0 0 0 0 0 0 0 0 0 0 0 0 0 0 0 0 0 0 0 0 0 0 0 0 0 0 0 0 0 0 0 0 0 0 0 0 0 0 0 0 0
0 0 0 0 0 0 0 0 0 0 0 0 0 0 0 0 0 0 0 0 0 0 0 0 0 0 0 0 0 0 0 0 0 0 0 0 0 0 0 0 0 0 0
0 0 0 0 0 0 0 0 0 0 0 0 0 0 0 0 0 0 0 0 0 0 0 0 0 0 0 0 0 0 0 0 0 0 0 0 0 0 0 0 0 0 0
0 0 0 0 0 0 0 0 0 0 0 0 0 0 0 0 0 0 0 0 0 0 0 0 0 0 0 0 0 0 0 0 0 0 0 0 0 0 0 0 0 0 0
Height
5815 5817 5819 5820 5822 5823 5825 5826 5827 5827 5827 5827 5827 5827 5827 5826 5826 5825 5823 5822 5820 5818 5816 5814 5812 5809 5807 5804 5801 5798 5796 5793 5790 5787 5784 5781 5778 5775 5772 5769 5767 5764 5762
5808 5810 5812 5814 5815 5817 5818 5819 5820 5821 5821 5821 5821 5821 5821 5820 5820 5819 5817 5816 5814 5812 5810 5808 5806 5803 5800 5797 5794 5791 5788 5785 5782 5779 5777 5774 5771 5768 5765 5762 5759 5756 5754
5800 5803 5805 5806 5808 5809 5811 5812 5813 5814 5815 5815 5815 5815 5814 5814 5813 5812 5811 5810 5808 5806 5804 5801 5799 5796 5793 5790 5787 5784 5781 5778 5775 5772 5769 5766 5763 5760 5757 5754 5751 5748 5745
5793 5795 5797 5799 5801 5802 5803 5805 5806 5807 5808 5808 5808 5808 5808 5807 5806 5806 5804 5803 5801 5799 5797 5794 5792 5789 5786 5783 5780 5777 5774 5771 5767 5764 5761 5758 5755 5752 5749 5746 5743 5740 5737
5785 5788 5790 5792 5793 5795 5796 5797 5799 5800 5801 5801 5801 5801 5801 5800 5799 5798 5797 5796 5794 5792 5790 5788 5785 5782 5779 5776 5773 5769 5766 5763 5759 5756 5753 5750 5747 5744 5741 5737 5734 5731 5728
5778 5780 5782 5784 5786 5787 5789 5790 5791 5792 5793 5794 5794 5794 5793 5793 5792 5791 5790 5788 5787 5785 5783 5781 5778 5775 5772 5769 5765 5762 5758 5755 5751 5748 5745 5742 5739 5736 5733 5729 5726 5722 5719
5770 5772 5775 5777 5778 5780 5781 5783 5783 5784 5786 5786 5786 5786 5786 5785 5784 5783 5782 5781 5780 5778 5776 5773 5771 5768 5765 5761 5758 5754 5750 5747 5743 5740 5737 5734 5731 5728 5725 5721 5717 5714 5711
5762 5764 5766 5769 5770 5772 5773 5775 5776 5776 5777 5778 5778 5779 5779 5778 5777 5776 5775 5773 5772 5770 5768 5766 5763 5760 5757 5754 5750 5747 5743 5739 5736 5732 5729 5726 5723 5720 5716 5713 5709 5705 5702
5754 5756 5758 5760 5762 5763 5764 5766 5767 5768 5769 5769 5769 5770 5770 5770 5770 5769 5767 5766 5764 5762 5760 5758 5755 5753 5750 5747 5743 5740 5736 5732 5729 5725 5722 5719 5715 5711 5708 5704 5701 5697 5694
5745 5747 5749 5751 5753 5754 5756 5757 5759 5760 5760 5761 5761 5761 5761 5761 5761 5761 5760 5758 5756 5754 5752 5750 5748 5745 5742 5739 5736 5732 5729 5725 5721 5718 5714 5711 5707 5703 5699 5696 5692 5688 5685
5737 5739 5741 5743 5744 5746 5747 5748 5749 5751 5751 5752 5752 5752 5752 5752 5751 5751 5752 5750 5748 5746 5744 5742 5740 5737 5734 5731 5728 5725 5721 5718 5714 5710 5707 5703 5699 5695 5691 5687 5684 5680 5677
5728 5730 5732 5734 5735 5737 5738 5739 5740 5741 5741 5742 5742 5742 5743 5742 5742 5742 5742 5741 5740 5738 5736 5733 5731 5729 5726 5723 5720 5717 5713 5710 5706 5703 5699 5695 5690 5686 5682 5679 5675 5672 5669
5719 5721 5723 5725 5726 5728 5729 5730 5730 5731 5732 5733 5733 5733 5733 5733 5733 5732 5732 5732 5731 5729 5727 5725 5723 5720 5718 5715 5712 5709 5705 5702 5698 5695 5691 5686 5682 5678 5674 5671 5668 5665 5661
5709 5711 5714 5715 5717 5718 5719 5720 5721 5721 5722 5723 5723 5723 5723 5723 5723 5723 5722 5722 5721 5721 5719 5717 5715 5712 5709 5706 5703 5700 5697 5693 5690 5687 5683 5679 5675 5671 5667 5663 5660 5657 5654
5700 5702 5704 5706 5707 5709 5710 5711 5711 5712 5712 5712 5712 5713 5713 5713 5713 5713 5712 5712 5711 5711 5711 5709 5706 5704 5701 5698 5695 5692 5688 5685 5682 5678 5675 5671 5667 5663 5659 5656 5653 5649 5646
5691 5693 5694 5696 5697 5699 5700 5701 5702 5702 5702 5702 5702 5702 5703 5704 5704 5703 5703 5702 5701 5701 5700 5700 5697 5694 5692 5689 5686 5683 5680 5676 5673 5670 5667 5663 5659 5656 5652 5648 5645 5642 5638
5682 5684 5685 5686 5688 5689 5690 5691 5692 5692 5692 5692 5692 5692 5693 5693 5694 5694 5693 5693 5693 5691 5691 5690 5688 5685 5683 5680 5677 5674 5671 5668 5665 5662 5659 5655 5652 5648 5645 5641 5637 5634 5630
5672 5674 5675 5676 5678 5679 5680 5681 5681 5682 5682 5682 5682 5683 5683 5683 5684 5684 5684 5684 5684 5683 5682 5681 5679 5677 5674 5671 5668 5665 5662 5659 5656 5653 5650 5647 5644 5640 5637 5633 5629 5626 5623
5662 5664 5665 5666 5668 5669 5670 5671 5671 5672 5672 5673 5673 5673 5674 5674 5674 5674 5674 5674 5674 5673 5673 5672 5670 5668 5665 5662 5659 5657 5653 5651 5648 5645 5642 5639 5636 5632 5629 5625 5621 5618 5615
5652 5653 5655 5656 5657 5659 5660 5661 5662 5662 5663 5663 5663 5664 5664 5664 5664 5665 5665 5665 5664 5664 5663 5662 5661 5658 5656 5653 5650 5647 5645 5642 5639 5637 5633 5630 5627 5623 5620 5617 5613 5610 5606
5642 5643 5645 5646 5647 5649 5650 5651 5652 5652 5653 5654 5654 5654 5654 5654 5654 5655 5655 5655 5654 5654 5653 5652 5650 5648 5646 5643 5640 5638 5636 5633 5631 5628 5625 5622 5619 5616 5612 5608 5605 5602 5598
5632 5633 5635 5636 5637 5638 5639 5640 5641 5642 5643 5643 5644 5644 5644 5644 5645 5645 5644 5645 5645 5644 5643 5642 5640 5638 5636 5633 5631 5628 5627 5625 5624 5622 5618 5614 5611 5607 5604 5600 5597 5594 5591
5623 5624 5625 5626 5627 5628 5629 5630 5631 5632 5633 5633 5633 5634 5634 5634 5634 5634 5634 5634 5634 5634 5633 5632 5630 5628 5627 5625 5623 5621 5618 5616 5615 5612 5609 5606 5603 5600 5596 5593 5590 5587 5584
5613 5614 5615 5615 5616 5617 5618 5619 5620 5621 5622 5622 5622 5623 5623 5624 5624 5624 5624 5624 5624 5624 5623 5622 5621 5620 5618 5616 5614 5612 5610 5609 5607 5604 5601 5599 5596 5593 5589 5586 5583 5580 5578
5603 5604 5604 5605 5606 5607 5607 5608 5609 5610 5611 5611 5612 5612 5613 5613 5613 5613 5614 5614 5614 5613 5612 5612 5611 5610 5608 5607 5606 5604 5602 5601 5599 5597 5594 5592 5589 5586 5583 5580 5577 5574 5572
5593 5594 5594 5594 5595 5595 5596 5597 5597 5598 5600 5601 5601 5602 5602 5602 5602 5602 5603 5603 5603 5603 5602 5602 5601 5600 5599 5598 5597 5596 5594 5593 5591 5589 5587 5585 5582 5580 5578 5575 5572 5569 5566
Wind_Speed
34 33 32 30 30 29 29 28 28 27 27 27 27 26 26 26 26 26 27 27 27 28 28 28 29 29 30 30 30 31 32 32 32 31 31 31 31 31 31 31 31 31 31
34 33 33 33 32 31 30 30 29 29 29 28 28 28 28 28 28 28 28 28 28 29 29 30 30 30 31 31 31 32 32 32 32 32 32 32 32 32 32 32 33 33 33
35 35 33 33 32 32 31 30 30 30 30 30 29 29 29 29 29 29 30 30 30 30 30 31 31 31 32 32 32 33 33 33 33 33 33 34 33 33 33 33 34 34 34
35 35 35 34 33 32 32 31 31 31 31 31 31 31 30 30 30 30 31 31 31 31 31 31 31 31 32 33 33 33 34 34 34 34 34 34 34 34 34 34 34 34 34
35 35 34 34 34 34 33 32 32 31 31 31 31 31 31 31 31 31 31 32 32 32 32 32 32 32 33 33 33 34 34 34 34 34 34 34 34 34 34 34 34 34 34
36 36 35 36 35 35 34 34 34 33 32 32 31 32 33 32 32 32 32 32 32 33 33 32 33 33 33 33 33 34 34 34 34 35 35 35 35 35 35 35 34 34 34
38 37 36 37 36 36 35 34 33 34 33 33 33 33 33 33 32 32 33 33 33 33 33 33 33 33 33 33 34 34 34 34 35 35 35 35 35 35 35 35 34 33 33
39 38 36 36 37 37 37 36 35 34 35 35 35 34 34 33 33 34 34 33 33 33 33 33 33 33 33 33 34 34 34 34 35 35 35 35 35 35 35 36 35 34 34
40 39 38 37 37 38 37 37 37 36 35 37 37 36 35 35 34 34 34 34 34 33 33 34 33 33 33 33 34 34 33 34 34 34 34 34 35 35 36 36 35 35 35
39 39 38 38 38 39 39 39 39 38 37 37 37 37 36 36 35 34 34 34 35 35 35 35 34 34 34 34 34 34 34 35 35 35 35 35 35 36 36 36 35 34 34
41 40 40 39 39 40 40 40 41 40 40 39 39 39 38 37 36 36 35 35 35 36 36 35 34 34 34 34 34 35 35 35 35 35 36 35 35 35 35 35 34 34 34
41 41 40 40 40 40 40 40 41 41 41 40 39 39 40 38 37 36 37 36 36 37 36 36 35 34 34 34 34 34 35 35 35 35 35 35 35 34 34 34 34 33 33
39 40 40 40 40 39 40 40 42 42 40 39 39 38 39 39 38 38 38 38 38 36 36 35 35 35 35 35 35 35 35 35 35 35 35 35 34 34 34 34 33 32 32
38 40 40 41 41 41 41 40 40 40 40 40 40 40 38 38 39 39 38 38 38 37 36 35 35 36 36 36 36 36 35 35 35 35 35 35 34 33 33 34 33 32 31
38 38 40 41 42 41 41 39 39 40 41 40 40 40 40 39 39 39 39 38 38 37 35 35 36 36 37 37 36 36 35 35 35 35 35 34 33 33 33 33 33 32 32
38 38 38 40 40 40 40 39 39 39 39 39 39 38 39 39 38 38 38 37 37 37 36 35 36 37 37 36 36 36 35 35 35 35 34 34 34 33 33 33 33 33 33
38 37 36 37 37 38 38 38 39 39 39 38 38 37 37 36 36 37 37 37 36 36 35 34 34 35 35 36 35 35 35 35 35 35 34 34 33 33 33 33 32 32 31
39 38 38 37 37 38 38 38 38 38 38 38 38 37 36 36 35 35 36 36 36 35 35 34 34 34 35 35 35 35 35 35 35 34 33 33 33 33 33 32 32 31 31
40 40 40 39 38 37 36 37 37 36 36 36 36 36 36 36 35 35 36 36 36 36 36 35 35 34 35 35 35 35 35 35 34 34 33 33 33 33 33 32 32 31 31
39 39 39 39 38 37 35 35 35 35 35 35 36 36 35 35 35 36 36 36 36 36 37 37 37 36 36 36 36 35 34 33 33 33 33 33 33 33 32 31 31 31 30
37 38 38 38 37 37 35 34 34 35 36 35 35 36 36 35 35 35 36 36 36 36 36 37 37 37 37 36 35 34 33 32 32 32 32 33 33 32 31 30 30 30 30
36 37 38 38 38 37 36 35 34 34 35 37 36 36 37 36 36 36 36 37 36 36 36 37 37 36 35 34 33 32 32 32 31 32 31 31 31 31 30 29 29 29 27
36 36 38 39 39 38 38 37 36 35 36 36 36 36 35 35 36 36 36 37 37 36 37 37 35 35 34 33 32 32 32 32 31 31 30 30 30 29 28 28 27 26 25
35 35 37 38 39 38 38 38 37 36 37 37 37 37 37 36 37 36 36 36 36 37 37 36 35 34 33 32 32 32 31 31 30 30 30 29 28 27 26 26 25 24 24
35 35 35 35 37 38 38 39 38 38 38 37 37 38 38 38 37 36 37 37 36 36 35 35 34 33 33 32 32 32 31 31 30 30 29 28 27 25 24 24 23 23 23
35 36 36 36 37 38 39 39 38 38 37 36 37 37 38 39 39 37 37 36 35 35 35 34 33 32 32 32 32 31 30 30 30 28 27 27 25 24 23 22 23 23 23
Wind_Direction
246 247 250 252 253 255 257 259 261 264 267 269 272 275 278 282 286 288 291 293 295 296 297 298 299 300 300 300 300 301 301 302 302 302 303 303 302 302 301 300 298 297 295
247 247 250 251 252 253 255 257 261 264 267 269 271 275 277 281 285 287 289 292 294 295 296 297 298 299 299 300 300 300 300 300 300 300 301 302 302 302 301 299 298 296 295
246 245 250 250 251 253 254 257 260 263 267 269 272 274 277 280 283 285 288 290 293 295 296 297 297 298 299 300 300 300 300 300 300 300 300 301 302 301 300 299 298 297 296
248 249 250 250 251 252 254 256 260 263 266 270 272 274 277 280 282 285 287 289 291 293 295 296 297 298 299 300 300 300 299 299 300 300 301 300 301 301 301 300 299 298 297
250 251 252 253 253 253 255 257 261 264 267 271 273 275 278 280 282 284 286 288 290 292 294 295 296 298 299 299 300 301 301 300 300 300 300 300 301 302 302 300 299 298 296
251 253 253 254 255 256 258 260 261 264 267 270 275 278 279 280 282 283 284 287 289 291 292 294 295 297 298 299 300 301 302 302 302 300 300 300 301 301 302 302 301 299 296
251 254 256 255 256 258 259 261 264 265 266 270 274 276 278 279 281 282 283 285 288 289 291 293 295 296 298 299 300 301 302 303 303 302 301 301 302 302 302 302 302 300 298
251 254 257 257 256 258 260 262 264 266 267 270 273 275 277 279 280 281 284 285 287 289 291 292 294 295 296 299 300 301 302 303 303 303 303 303 302 302 302 303 301 300 299
251 253 255 257 256 257 260 262 265 266 269 270 270 274 278 279 280 281 283 285 286 288 290 291 293 295 296 298 299 300 300 302 304 304 304 303 303 303 303 303 301 300 299
251 252 255 257 258 258 261 263 265 266 269 271 271 273 276 278 279 281 282 284 286 288 290 291 292 294 295 296 297 298 299 301 302 304 304 304 304 303 302 302 302 300 298
252 254 257 258 260 262 262 264 265 266 269 271 272 273 274 277 278 280 281 283 285 287 289 290 291 292 294 295 296 297 298 300 302 303 305 305 305 304 303 303 302 300 299
254 255 257 258 262 264 265 265 266 267 269 271 273 274 273 274 276 279 281 282 284 286 287 289 289 291 293 294 295 297 298 300 302 304 305 305 305 304 304 303 302 301 300
254 255 257 258 261 263 265 267 267 267 268 270 272 274 274 273 275 278 279 281 282 284 285 287 288 290 292 294 296 297 298 300 301 304 304 304 305 304 303 303 303 302 301
256 257 258 259 260 263 265 268 267 267 268 269 270 272 274 275 275 276 278 281 282 283 284 285 287 289 291 293 295 297 298 298 300 303 303 303 304 304 304 304 303 301 300
258 260 261 261 262 264 265 268 270 270 269 270 271 272 273 275 277 277 278 280 282 281 282 284 286 288 290 291 293 295 296 297 299 301 302 303 303 304 304 304 302 300 299
258 261 263 263 263 264 266 268 269 271 271 271 272 274 276 277 278 279 279 280 281 283 282 284 286 288 290 291 293 293 295 296 297 300 301 302 303 304 304 303 301 300 301
259 261 263 264 264 265 266 268 268 270 271 271 272 272 274 275 275 278 279 280 283 284 285 286 288 290 292 292 292 294 295 296 297 299 300 301 302 304 304 303 302 303 302
259 261 264 265 266 266 266 267 268 269 271 272 272 272 274 274 275 277 278 279 281 283 285 286 289 291 292 292 293 294 296 297 297 298 298 299 302 303 304 302 301 300 302
259 261 262 264 265 266 266 267 268 270 270 271 271 272 273 273 274 274 276 278 280 282 284 285 289 291 293 293 293 293 295 296 297 296 298 298 299 301 303 302 301 301 302
260 260 261 262 264 266 267 267 266 268 269 270 271 272 272 272 272 272 274 276 279 280 282 284 287 289 292 293 294 294 294 295 295 296 297 297 298 300 301 301 300 301 303
263 261 262 263 264 265 266 267 266 268 269 270 271 271 271 272 273 273 273 275 277 279 281 283 287 289 291 292 293 294 293 293 293 295 297 298 299 300 300 300 300 302 304
266 265 264 264 264 265 265 267 268 269 270 270 270 271 272 273 274 273 273 273 276 278 281 283 285 288 289 290 291 293 291 291 293 295 296 297 298 299 299 299 300 302 304
267 267 265 264 265 266 266 266 267 270 270 270 270 271 272 273 274 273 272 273 276 278 281 283 284 286 288 289 289 290 290 292 294 294 294 296 298 299 298 298 299 302 304
266 267 267 266 266 266 266 267 268 269 271 271 271 272 273 273 273 272 272 274 276 277 279 281 283 283 284 285 286 288 289 290 293 294 294 296 298 298 298 299 299 302 304
269 269 269 268 267 266 266 267 268 268 269 270 271 271 272 272 272 272 271 273 275 276 277 280 280 281 282 282 285 286 287 288 291 293 294 295 296 296 297 299 299 301 304
272 271 270 270 268 267 267 267 267 268 268 269 271 271 270 271 271 272 272 272 273 274 276 277 278 279 280 281 283 284 284 286 288 290 292 294 296 297 297 297 299 301 304